Regional Weather Roundup
Issued by NWS

Home | Current Version | Previous Version | Text Only | Print | Product List | Glossary On
Versions: 1 2 3 4 5 6 7 8 9 10 11 12 13 14 15 16 17 18 19 20 21 22 23 24 25 26 27 28 29 30 31 32 33 34 35 36 37 38 39 40 41 42 43 44 45 46 47 48 49 50
000
ASUS43 KFSD 300302
RWRSD

WEATHER ROUNDUP FOR SOUTH DAKOTA
NATIONAL WEATHER SERVICE SIOUX FALLS SD
1000 PM CDT WED OCT 29 2014

NOTE: "FAIR" INDICATES FEW OR NO CLOUDS BELOW 12,000 FEET WITH NO
SIGNIFICANT WEATHER AND/OR OBSTRUCTIONS TO VISIBILITY.


SDZ001>005-009-010-012>017-300400-
NORTHWEST AND NORTH CENTRAL SOUTH DAKOTA

CITY           SKY/WX    TMP DP  RH WIND       PRES   REMARKS
BUFFALO          N/A     41  34  76 W10       29.98R
FAITH            N/A     42  34  73 W10       30.01R
MOBRIDGE       CLOUDY    48  37  65 N7        29.94S
$$

SDZ012>016-024>037-041>051-057-063-072>074-300400-
SOUTHWEST AND SOUTH CENTRAL SOUTH DAKOTA

CITY           SKY/WX    TMP DP  RH WIND       PRES   REMARKS
RAPID CTY ARPT CLEAR     42  33  70 NW8       30.07S
PIERRE         PTCLDY    40  30  67 SW3       29.96S
CUSTER         MOCLDY    47  27  45 NW3       30.12S
ELLSWORTH AFB  PTCLDY    45  34  64 W6        30.07R
PHILIP         CLEAR     40  29  64 W6        30.03R
PINE RIDGE     CLEAR     35  26  69 SW5       30.08R
SPEARFISH      FAIR      39  32  75 SW5       30.10S
WINNER         FAIR      53  27  36 W7        29.99R
$$

SDZ004>011-016>023-039-040-300400-
NORTHEAST SOUTH DAKOTA

CITY           SKY/WX    TMP DP  RH WIND       PRES   REMARKS
ABERDEEN       CLOUDY    46  35  65 S9        29.97S
WATERTOWN      CLOUDY    44  32  62 S5        29.98F
SISSETON         N/A     41  35  79 S6        30.00R
$$

SDZ017-020-022-023-036>040-048>070-300400-
SOUTHEAST SOUTH DAKOTA

CITY           SKY/WX    TMP DP  RH WIND       PRES   REMARKS
SIOUX FALLS    CLOUDY    47  31  53 S7        30.02F
HURON          CLOUDY    48  31  51 S10       29.97F
CHAMBERLAIN    MOCLDY    46  33  60 CALM      29.98R
MITCHELL       CLOUDY    48  33  56 SE10      29.99F
YANKTON        CLOUDY    46  32  57 SE7       30.02F
$$

ABBREVIATIONS USED IN REMARKS
   TC - TEMPERATURE IN CELSIUS
  WCI - WIND CHILL INDEX
   HX - HEAT INDEX
  VSB - VISIBILITY




USA.gov is the U.S. government's official web portal to all federal, state and local government web resources and services.